Zurück zum Katalog

PIESAT-2 11

AktivWissenschaftSSO
NORAD 62335·PAYLOAD·🇨🇳 China

Gestartet Dec 16, 2024 von Taiyuan Satellite Launch Center

Loading…

Nächste Überflüge (nächste 24 Stunden)

TLE

AktuellSource: Space-Track

Epoche: Sep 14, 2026, 23:14 UTC

1 62335U 24241C   26257.96809053  .00006591  00000-0  35480-3 0  9998
2 62335  97.5347 204.6103 0002299  64.8043 295.3427 15.15167120 96409

Verfolge PIESAT-2 11 in Echtzeit mit AllMySat

Download on the App Store